{"data":{"norad_id":82139,"epoch":"2026-05-22T11:33:50.048928Z","epoch_age_seconds":285873,"freshness":"STALE","line1":"1 82139U          26142.48182927  .00001609  00000+0  81012-3 0  9999","line2":"2 82139  99.0100 217.2554 0079481 306.6241  52.7641 14.16238213502868","mean_motion":14.16238213,"eccentricity":0.0079481,"inclination_deg":99.01,"raan_deg":217.2554,"arg_perigee_deg":306.6241,"mean_anomaly_deg":52.7641,"bstar":0.00081012,"rev_number":50286,"period_min":101.67781004508,"perigee_km":780.74760952285,"apogee_km":895.45840391767,"semimajor_km":7216.2400067203,"source":"CELESTRAK","updated_at":"2026-05-25T13:38:11.091622Z"}}